星链-5863 (STARLINK-5863 )

导读 | 星芒AI

STARLINK-5863 是 SpaceX Starlink 项目中的一颗低轨卫星,属于其第二代卫星星座计划的一部分。该卫星于2023年发射,旨在为全球用户提供高速、低延迟的互联网服务。它运行在约550公里高的近地轨道,配备先进通信设备,支持Ka和Ku频段传输。Starlink 卫星群致力于改善偏远地区的网络接入,同时推动全球宽带覆盖。STARLINK-5863 的部署进一步增强了 Starlink 网络的稳定性和服务能力。

基本信息
目录编号:
55922
目录名称:
STARLINK-5863
国际标识:
2023-037J
轨道中心:
EARTH
卫星名称:
星链-5863
卫星全名:
星链-5863 (STARLINK-5863 )
卫星状态:
在轨 (已飞行1010 天)
发射日期:
2023-03-17 UTC
国别 :
美国 (US)
星等 :
--
轨道信息
数据来源 国际轨道数据
星历时间: 2025-12-21T03:38:31+0800
20小时前
查看轨道信息
半长轴: 6950.203km
偏心率: 0.0002735
轨道倾角: 69.999°
近地点辐角 270.191°
升交点赤经 143.293°
平近点角 89.894°
近地点: 570.165km
远地点: 573.967km
周期: 96.107分钟
每日圈数: 14.98327
详细信息
固有亮度:
5
最大亮度:
2.5
卫星平台:
Starlink v1.5
覆盖范围:
全球
运营商:
太空探索技术公司
运营商所在国:
美国
制造商(研发单位):
太空探索技术公司
制造商所在国:
美国
使用方式:
暂无
卫星简介
星链(Starlink)计划是由太空探索技术公司(SpaceX)提出的一个巨型低轨卫星互联网星座项目,计划在2019年至2024年间在太空搭建由约1.2万颗卫星组成的“星链”网络,其中1584颗将部署在地球上空550千米处的近地轨道,并从2020年开始工作。该卫星仍在工作。
2D轨道图
3D轨道图
轨道高度分析图
轨道倾角分析图
轨道综合分析图
查看轨道综合分析图